Time,TemperatureF,DewpointF,PressureIn,WindDirection,WindDirectionDegrees,WindSpeedMPH,WindSpeedGustMPH,Humidity,HourlyPrecipIn,Conditions,Clouds,dailyrainin,SoftwareType,DateUTC
2013-02-24 00:01:00,39.0,25.0,-100.00,North,355,3.0,7.0,56,-99.99,,,-99.99,,2013-02-24 08:01:00,
2013-02-24 00:11:00,40.0,25.0,-100.00,ENE,58,2.0,6.0,55,-99.99,,,-99.99,,2013-02-24 08:11:00,
2013-02-24 00:22:00,40.0,25.0,-100.00,ENE,58,5.0,11.0,55,-99.99,,,-99.99,,2013-02-24 08:22:00,
2013-02-24 00:31:00,40.0,24.0,-100.00,NE,37,7.0,11.0,53,-99.99,,,-99.99,,2013-02-24 08:31:00,
2013-02-24 00:41:00,40.0,24.0,-100.00,NE,51,7.0,12.0,53,-99.99,,,-99.99,,2013-02-24 08:41:00,
2013-02-24 00:53:00,40.0,25.0,-100.00,NE,52,8.0,13.0,54,-99.99,,,-99.99,,2013-02-24 08:53:00,
2013-02-24 01:01:00,40.0,25.0,-100.00,ENE,61,10.0,14.0,54,-99.99,,,-99.99,,2013-02-24 09:01:00,
2013-02-24 01:11:00,40.0,25.0,-100.00,ENE,67,10.0,16.0,55,-99.99,,,-99.99,,2013-02-24 09:11:00,
2013-02-24 01:21:00,40.0,26.0,-100.00,ENE,65,10.0,13.0,56,-99.99,,,-99.99,,2013-02-24 09:21:00,
2013-02-24 01:31:00,40.0,26.0,-100.00,ENE,72,10.0,14.0,56,-99.99,,,-99.99,,2013-02-24 09:31:00,
2013-02-24 01:41:00,39.0,25.0,-100.00,ENE,67,9.0,12.0,58,-99.99,,,-99.99,,2013-02-24 09:41:00,
2013-02-24 01:51:00,39.0,26.0,-100.00,ENE,75,8.0,14.0,59,-99.99,,,-99.99,,2013-02-24 09:51:00,
2013-02-24 02:01:00,39.0,26.0,-100.00,East,79,9.0,13.0,59,-99.99,,,-99.99,,2013-02-24 10:01:00,
2013-02-24 02:11:00,38.0,25.0,-100.00,ENE,76,10.0,15.0,59,-99.99,,,-99.99,,2013-02-24 10:11:00,
2013-02-24 02:21:00,38.0,25.0,-100.00,East,80,12.0,16.0,60,-99.99,,,-99.99,,2013-02-24 10:21:00,
2013-02-24 02:31:00,37.0,25.0,-100.00,East,80,12.0,16.0,61,-99.99,,,-99.99,,2013-02-24 10:31:00,
2013-02-24 02:41:00,37.0,25.0,-100.00,ENE,75,11.0,16.0,61,-99.99,,,-99.99,,2013-02-24 10:41:00,
2013-02-24 02:51:00,37.0,24.0,-100.00,East,79,11.0,15.0,59,-99.99,,,-99.99,,2013-02-24 10:51:00,
2013-02-24 03:01:00,37.0,24.0,-100.00,East,81,13.0,18.0,59,-99.99,,,-99.99,,2013-02-24 11:01:00,
2013-02-24 03:11:00,36.0,23.0,-100.00,East,85,11.0,15.0,60,-99.99,,,-99.99,,2013-02-24 11:11:00,
2013-02-24 03:21:00,36.0,24.0,-100.00,East,84,11.0,15.0,62,-99.99,,,-99.99,,2013-02-24 11:21:00,
2013-02-24 03:32:00,36.0,24.0,-100.00,East,80,12.0,16.0,61,-99.99,,,-99.99,,2013-02-24 11:32:00,
2013-02-24 03:41:00,36.0,24.0,-100.00,East,79,12.0,16.0,61,-99.99,,,-99.99,,2013-02-24 11:41:00,
2013-02-24 03:52:00,35.0,23.0,-100.00,East,81,11.0,14.0,61,-99.99,,,-99.99,,2013-02-24 11:52:00,
2013-02-24 04:01:00,35.0,22.0,-100.00,East,83,12.0,15.0,59,-99.99,,,-99.99,,2013-02-24 12:01:00,
2013-02-24 04:11:00,35.0,22.0,-100.00,East,82,12.0,15.0,59,-99.99,,,-99.99,,2013-02-24 12:11:00,
2013-02-24 04:21:00,35.0,22.0,-100.00,ENE,75,11.0,17.0,58,-99.99,,,-99.99,,2013-02-24 12:21:00,
2013-02-24 04:32:00,35.0,21.0,-100.00,ENE,77,11.0,15.0,57,-99.99,,,-99.99,,2013-02-24 12:32:00,
2013-02-24 04:46:00,35.0,20.0,-100.00,ENE,77,13.0,18.0,55,-99.99,,,-99.99,,2013-02-24 12:46:00,
2013-02-24 04:54:00,35.0,20.0,-100.00,East,80,13.0,17.0,54,-99.99,,,-99.99,,2013-02-24 12:54:00,
2013-02-24 05:05:00,35.0,20.0,-100.00,East,87,12.0,16.0,55,-99.99,,,-99.99,,2013-02-24 13:05:00,
2013-02-24 05:23:00,34.0,19.0,-100.00,East,81,12.0,16.0,54,-99.99,,,-99.99,,2013-02-24 13:23:00,
2013-02-24 05:32:00,35.0,19.0,-100.00,East,81,12.0,15.0,52,-99.99,,,-99.99,,2013-02-24 13:32:00,
2013-02-24 05:43:00,35.0,18.0,-100.00,ENE,78,12.0,17.0,49,-99.99,,,-99.99,,2013-02-24 13:43:00,
2013-02-24 06:02:00,34.0,17.0,-100.00,ENE,73,11.0,16.0,50,-99.99,,,-99.99,,2013-02-24 14:02:00,
2013-02-24 06:12:00,34.0,17.0,-100.00,ENE,73,12.0,19.0,50,-99.99,,,-99.99,,2013-02-24 14:12:00,
2013-02-24 06:23:00,34.0,18.0,-100.00,East,80,12.0,17.0,51,-99.99,,,-99.99,,2013-02-24 14:23:00,
2013-02-24 06:32:00,33.0,18.0,-100.00,East,90,12.0,16.0,54,-99.99,,,-99.99,,2013-02-24 14:32:00,
2013-02-24 06:43:00,33.0,19.0,-100.00,East,85,13.0,17.0,55,-99.99,,,-99.99,,2013-02-24 14:43:00,
2013-02-24 06:52:00,33.0,18.0,-100.00,ENE,78,15.0,20.0,54,-99.99,,,-99.99,,2013-02-24 14:52:00,
2013-02-24 07:02:00,33.0,16.0,-100.00,East,79,17.0,21.0,50,-99.99,,,-99.99,,2013-02-24 15:02:00,
2013-02-24 07:12:00,32.0,15.0,-100.00,East,89,15.0,20.0,49,-99.99,,,-99.99,,2013-02-24 15:12:00,
2013-02-24 07:22:00,33.0,14.0,-100.00,East,92,18.0,24.0,46,-99.99,,,-99.99,,2013-02-24 15:22:00,
2013-02-24 07:31:00,33.0,12.0,-100.00,East,89,18.0,25.0,42,-99.99,,,-99.99,,2013-02-24 15:31:00,
2013-02-24 07:41:00,33.0,10.0,-100.00,East,92,18.0,26.0,38,-99.99,,,-99.99,,2013-02-24 15:41:00,
2013-02-24 07:52:00,33.0,10.0,-100.00,East,92,21.0,28.0,38,-99.99,,,-99.99,,2013-02-24 15:52:00,
2013-02-24 08:01:00,34.0,9.0,-100.00,East,92,22.0,30.0,35,-99.99,,,-99.99,,2013-02-24 16:01:00,
2013-02-24 08:11:00,34.0,5.0,-100.00,East,96,18.0,26.0,29,-99.99,,,-99.99,,2013-02-24 16:11:00,
2013-02-24 08:21:00,34.0,3.0,-100.00,East,88,18.0,26.0,26,-99.99,,,-99.99,,2013-02-24 16:21:00,
2013-02-24 08:31:00,35.0,1.0,-100.00,East,79,18.0,26.0,23,-99.99,,,-99.99,,2013-02-24 16:31:00,
2013-02-24 08:41:00,36.0,-1.0,-100.00,ENE,75,16.0,27.0,20,-99.99,,,-99.99,,2013-02-24 16:41:00,
2013-02-24 08:52:00,36.0,-1.0,-100.00,ENE,75,16.0,27.0,20,-99.99,,,-99.99,,2013-02-24 16:52:00,
2013-02-24 09:01:00,36.0,-2.0,-100.00,ENE,73,20.0,28.0,19,-99.99,,,-99.99,,2013-02-24 17:01:00,
2013-02-24 09:11:00,36.0,-1.0,-100.00,ENE,69,18.0,29.0,20,-99.99,,,-99.99,,2013-02-24 17:11:00,
2013-02-24 09:21:00,37.0,-3.0,-100.00,ENE,66,17.0,27.0,18,-99.99,,,-99.99,,2013-02-24 17:21:00,
2013-02-24 09:31:00,37.0,-4.0,-100.00,ENE,75,20.0,30.0,17,-99.99,,,-99.99,,2013-02-24 17:31:00,
2013-02-24 09:41:00,37.0,-3.0,-100.00,ENE,76,22.0,31.0,18,-99.99,,,-99.99,,2013-02-24 17:41:00,
2013-02-24 09:52:00,37.0,-1.0,-100.00,ENE,77,20.0,29.0,19,-99.99,,,-99.99,,2013-02-24 17:52:00,
2013-02-24 10:01:00,37.0,-1.0,-100.00,ENE,77,20.0,29.0,19,-99.99,,,-99.99,,2013-02-24 18:01:00,
2013-02-24 10:11:00,38.0,2.0,-100.00,East,95,19.0,30.0,21,-99.99,,,-99.99,,2013-02-24 18:11:00,
2013-02-24 10:21:00,38.0,2.0,-100.00,East,88,21.0,31.0,21,-99.99,,,-99.99,,2013-02-24 18:21:00,
2013-02-24 10:31:00,37.0,1.0,-100.00,East,81,21.0,32.0,21,-99.99,,,-99.99,,2013-02-24 18:31:00,
2013-02-24 10:41:00,38.0,2.0,-100.00,East,81,19.0,34.0,21,-99.99,,,-99.99,,2013-02-24 18:41:00,
2013-02-24 10:51:00,38.0,2.0,-100.00,East,83,20.0,31.0,21,-99.99,,,-99.99,,2013-02-24 18:51:00,
2013-02-24 11:01:00,38.0,3.0,-100.00,East,81,19.0,29.0,22,-99.99,,,-99.99,,2013-02-24 19:01:00,
2013-02-24 11:11:00,38.0,3.0,-100.00,East,83,20.0,30.0,22,-99.99,,,-99.99,,2013-02-24 19:11:00,
2013-02-24 11:22:00,38.0,3.0,-100.00,East,84,19.0,27.0,22,-99.99,,,-99.99,,2013-02-24 19:22:00,
2013-02-24 11:31:00,39.0,3.0,-100.00,East,85,19.0,28.0,22,-99.99,,,-99.99,,2013-02-24 19:31:00,
2013-02-24 11:41:00,39.0,3.0,-100.00,ENE,72,18.0,32.0,22,-99.99,,,-99.99,,2013-02-24 19:41:00,
2013-02-24 11:51:00,39.0,2.0,-100.00,East,80,21.0,32.0,21,-99.99,,,-99.99,,2013-02-24 19:51:00,
2013-02-24 12:01:00,39.0,3.0,-100.00,East,89,19.0,29.0,22,-99.99,,,-99.99,,2013-02-24 20:01:00,
2013-02-24 12:11:00,39.0,2.0,-100.00,East,89,20.0,31.0,21,-99.99,,,-99.99,,2013-02-24 20:11:00,
2013-02-24 12:21:00,40.0,2.0,-100.00,East,83,20.0,32.0,20,-99.99,,,-99.99,,2013-02-24 20:21:00,
2013-02-24 12:31:00,39.0,2.0,-100.00,ENE,76,19.0,32.0,21,-99.99,,,-99.99,,2013-02-24 20:31:00,
2013-02-24 12:41:00,39.0,2.0,-100.00,East,89,21.0,32.0,21,-99.99,,,-99.99,,2013-02-24 20:41:00,
2013-02-24 12:52:00,39.0,3.0,-100.00,ESE,109,17.0,28.0,22,-99.99,,,-99.99,,2013-02-24 20:52:00,
2013-02-24 13:01:00,40.0,3.0,-100.00,ESE,104,18.0,29.0,21,-99.99,,,-99.99,,2013-02-24 21:01:00,
2013-02-24 13:11:00,39.0,2.0,-100.00,East,101,18.0,29.0,21,-99.99,,,-99.99,,2013-02-24 21:11:00,
2013-02-24 13:21:00,40.0,2.0,-100.00,ESE,102,18.0,29.0,20,-99.99,,,-99.99,,2013-02-24 21:21:00,
2013-02-24 13:32:00,41.0,3.0,-100.00,East,97,18.0,29.0,20,-99.99,,,-99.99,,2013-02-24 21:32:00,
2013-02-24 13:41:00,41.0,3.0,-100.00,East,97,18.0,30.0,20,-99.99,,,-99.99,,2013-02-24 21:41:00,
2013-02-24 13:52:00,41.0,2.0,-100.00,East,94,19.0,31.0,19,-99.99,,,-99.99,,2013-02-24 21:52:00,
2013-02-24 14:01:00,41.0,2.0,-100.00,East,93,19.0,31.0,19,-99.99,,,-99.99,,2013-02-24 22:01:00,
2013-02-24 14:11:00,41.0,2.0,-100.00,East,96,17.0,28.0,19,-99.99,,,-99.99,,2013-02-24 22:11:00,
2013-02-24 14:21:00,42.0,2.0,-100.00,East,98,16.0,24.0,18,-99.99,,,-99.99,,2013-02-24 22:21:00,
2013-02-24 14:31:00,42.0,2.0,-100.00,East,101,15.0,29.0,18,-99.99,,,-99.99,,2013-02-24 22:31:00,
2013-02-24 14:41:00,42.0,0.0,-100.00,East,101,14.0,24.0,17,-99.99,,,-99.99,,2013-02-24 22:41:00,
2013-02-24 14:51:00,43.0,0.0,-100.00,East,95,15.0,27.0,16,-99.99,,,-99.99,,2013-02-24 22:51:00,
2013-02-24 15:01:00,43.0,0.0,-100.00,East,94,15.0,25.0,16,-99.99,,,-99.99,,2013-02-24 23:01:00,
2013-02-24 15:11:00,43.0,-1.0,-100.00,East,94,16.0,26.0,15,-99.99,,,-99.99,,2013-02-24 23:11:00,
2013-02-24 15:21:00,43.0,-1.0,-100.00,East,96,15.0,25.0,15,-99.99,,,-99.99,,2013-02-24 23:21:00,
2013-02-24 15:31:00,43.0,-1.0,-100.00,East,98,13.0,21.0,15,-99.99,,,-99.99,,2013-02-24 23:31:00,
2013-02-24 15:41:00,43.0,-1.0,-100.00,East,101,13.0,25.0,15,-99.99,,,-99.99,,2013-02-24 23:41:00,
2013-02-24 15:52:00,43.0,-3.0,-100.00,East,97,15.0,24.0,14,-99.99,,,-99.99,,2013-02-24 23:52:00,
2013-02-24 16:01:00,43.0,-3.0,-100.00,East,97,15.0,24.0,14,-99.99,,,-99.99,,2013-02-25 00:01:00,
2013-02-24 16:11:00,43.0,-1.0,-100.00,East,95,13.0,20.0,15,-99.99,,,-99.99,,2013-02-25 00:11:00,
2013-02-24 16:21:00,43.0,0.0,-100.00,ESE,102,13.0,21.0,16,-99.99,,,-99.99,,2013-02-25 00:21:00,
2013-02-24 16:31:00,43.0,0.0,-100.00,East,101,13.0,19.0,16,-99.99,,,-99.99,,2013-02-25 00:31:00,
2013-02-24 16:41:00,43.0,0.0,-100.00,East,94,13.0,20.0,16,-99.99,,,-99.99,,2013-02-25 00:41:00,
2013-02-24 16:51:00,43.0,0.0,-100.00,East,100,12.0,19.0,16,-99.99,,,-99.99,,2013-02-25 00:51:00,
2013-02-24 17:01:00,42.0,0.0,-100.00,ESE,104,13.0,22.0,17,-99.99,,,-99.99,,2013-02-25 01:01:00,
2013-02-24 17:11:00,42.0,3.0,-100.00,East,101,13.0,21.0,19,-99.99,,,-99.99,,2013-02-25 01:11:00,
2013-02-24 17:21:00,42.0,2.0,-100.00,East,97,13.0,17.0,18,-99.99,,,-99.99,,2013-02-25 01:21:00,
2013-02-24 17:31:00,42.0,2.0,-100.00,East,97,13.0,17.0,18,-99.99,,,-99.99,,2013-02-25 01:31:00,
2013-02-24 17:42:00,41.0,1.0,-100.00,East,91,13.0,19.0,18,-99.99,,,-99.99,,2013-02-25 01:42:00,
2013-02-24 17:51:00,40.0,0.0,-100.00,East,91,14.0,18.0,18,-99.99,,,-99.99,,2013-02-25 01:51:00,
2013-02-24 18:01:00,40.0,-1.0,-100.00,East,92,13.0,18.0,17,-99.99,,,-99.99,,2013-02-25 02:01:00,
2013-02-24 18:11:00,39.0,-1.0,-100.00,East,87,11.0,15.0,18,-99.99,,,-99.99,,2013-02-25 02:11:00,
2013-02-24 18:21:00,38.0,-2.0,-100.00,East,86,12.0,16.0,18,-99.99,,,-99.99,,2013-02-25 02:21:00,
2013-02-24 18:31:00,37.0,-1.0,-100.00,East,83,12.0,16.0,19,-99.99,,,-99.99,,2013-02-25 02:31:00,
2013-02-24 18:41:00,37.0,-3.0,-100.00,East,79,12.0,17.0,18,-99.99,,,-99.99,,2013-02-25 02:41:00,
2013-02-24 18:52:00,37.0,-3.0,-100.00,East,79,13.0,17.0,18,-99.99,,,-99.99,,2013-02-25 02:52:00,
2013-02-24 19:01:00,37.0,-4.0,-100.00,East,80,13.0,17.0,17,-99.99,,,-99.99,,2013-02-25 03:01:00,
2013-02-24 19:11:00,37.0,-4.0,-100.00,East,80,13.0,17.0,17,-99.99,,,-99.99,,2013-02-25 03:11:00,
2013-02-24 19:21:00,37.0,-3.0,-100.00,East,81,11.0,15.0,18,-99.99,,,-99.99,,2013-02-25 03:21:00,
2013-02-24 19:31:00,37.0,-3.0,-100.00,East,82,10.0,16.0,18,-99.99,,,-99.99,,2013-02-25 03:31:00,
2013-02-24 19:41:00,36.0,-2.0,-100.00,East,85,10.0,13.0,19,-99.99,,,-99.99,,2013-02-25 03:41:00,
2013-02-24 19:51:00,36.0,-1.0,-100.00,East,83,11.0,15.0,20,-99.99,,,-99.99,,2013-02-25 03:51:00,
2013-02-24 20:01:00,37.0,-3.0,-100.00,ENE,77,12.0,15.0,18,-99.99,,,-99.99,,2013-02-25 04:01:00,
2013-02-24 20:11:00,36.0,-3.0,-100.00,East,79,12.0,15.0,18,-99.99,,,-99.99,,2013-02-25 04:11:00,
2013-02-24 20:21:00,36.0,-2.0,-100.00,ENE,77,11.0,13.0,19,-99.99,,,-99.99,,2013-02-25 04:21:00,
2013-02-24 20:31:00,36.0,-3.0,-100.00,ENE,76,10.0,14.0,18,-99.99,,,-99.99,,2013-02-25 04:31:00,
2013-02-24 20:41:00,36.0,-1.0,-100.00,East,89,11.0,15.0,20,-99.99,,,-99.99,,2013-02-25 04:41:00,
2013-02-24 20:51:00,36.0,-1.0,-100.00,East,89,11.0,15.0,20,-99.99,,,-99.99,,2013-02-25 04:51:00,
2013-02-24 21:01:00,35.0,-2.0,-100.00,East,84,12.0,14.0,20,-99.99,,,-99.99,,2013-02-25 05:01:00,
2013-02-24 21:11:00,35.0,-2.0,-100.00,East,85,12.0,14.0,20,-99.99,,,-99.99,,2013-02-25 05:11:00,
2013-02-24 21:22:00,35.0,-3.0,-100.00,East,87,13.0,15.0,19,-99.99,,,-99.99,,2013-02-25 05:22:00,
2013-02-24 21:31:00,36.0,-3.0,-100.00,East,82,13.0,16.0,18,-99.99,,,-99.99,,2013-02-25 05:31:00,
2013-02-24 21:41:00,37.0,-4.0,-100.00,East,80,13.0,16.0,17,-99.99,,,-99.99,,2013-02-25 05:41:00,
2013-02-24 21:52:00,37.0,-4.0,-100.00,ENE,75,11.0,14.0,17,-99.99,,,-99.99,,2013-02-25 05:52:00,
2013-02-24 22:02:00,37.0,-4.0,-100.00,ENE,72,11.0,14.0,17,-99.99,,,-99.99,,2013-02-25 06:02:00,
2013-02-24 22:11:00,36.0,-5.0,-100.00,ENE,73,12.0,15.0,17,-99.99,,,-99.99,,2013-02-25 06:11:00,
2013-02-24 22:21:00,36.0,-3.0,-100.00,ENE,77,12.0,16.0,18,-99.99,,,-99.99,,2013-02-25 06:21:00,
2013-02-24 22:31:00,36.0,-2.0,-100.00,ENE,71,12.0,16.0,19,-99.99,,,-99.99,,2013-02-25 06:31:00,
2013-02-24 22:41:00,36.0,-3.0,-100.00,ENE,73,13.0,17.0,18,-99.99,,,-99.99,,2013-02-25 06:41:00,
2013-02-24 22:51:00,36.0,-2.0,-100.00,ENE,72,14.0,19.0,19,-99.99,,,-99.99,,2013-02-25 06:51:00,
2013-02-24 23:01:00,36.0,-2.0,-100.00,ENE,73,13.0,18.0,19,-99.99,,,-99.99,,2013-02-25 07:01:00,
2013-02-24 23:11:00,36.0,-2.0,-100.00,ENE,73,14.0,17.0,19,-99.99,,,-99.99,,2013-02-25 07:11:00,
2013-02-24 23:21:00,36.0,-2.0,-100.00,ENE,74,14.0,17.0,19,-99.99,,,-99.99,,2013-02-25 07:21:00,
2013-02-24 23:31:00,36.0,-2.0,-100.00,ENE,77,14.0,18.0,19,-99.99,,,-99.99,,2013-02-25 07:31:00,
2013-02-24 23:41:00,36.0,-2.0,-100.00,ENE,73,14.0,18.0,19,-99.99,,,-99.99,,2013-02-25 07:41:00,
2013-02-24 23:51:00,36.0,-3.0,-100.00,ENE,76,14.0,17.0,18,-99.99,,,-99.99,,2013-02-25 07:51:00,